Regional Weather Roundup
Issued by NWS Grand Forks, ND

Home | Current Version | Previous Version | Graphics & Text | Print | Product List | Glossary On
Versions: 1 2 3 4 5 6 7 8 9 10 11 12 13 14 15 16 17 18 19 20 21 22 23 24 25 26 27 28 29 30 31 32 33 34 35 36 37 38 39 40 41 42 43 44 45 46 47 48 49 50
000
ASUS43 KFGF 040731
RWRFGF
PRAIRIE TO PINES  WEATHER ROUNDUP
NATIONAL WEATHER SERVICE EASTERN NORTH DAKOTA/GRAND FORKS ND
200 AM CDT TUE AUG 04 2015

 **SATELLITE DATA USED TO AUGMENT SKY COVER AT AUTOMATED STATIONS**
 *****  WEATHER ACROSS EASTERN NORTH DAKOTA  *****

CITY           SKY/WX    TMP DP  RH WIND       PRES   REMARKS
GRAND FORKS    CLEAR     50  47  89 W5        29.94R
GRAND FRKS AFB CLEAR     53  49  86 NW3       29.95R
GRAND FRKS NWS   N/A     54 N/A N/A MISG        N/A
DEVILS LAKE    CLEAR     57  48  72 NE3       29.96S
FARGO          CLEAR     58  49  72 SW5       29.94F
WAHPETON ARPT  SUNNY     52  46  82 CALM      29.96F
$$

 ***** WEATHER ACROSS CENTRAL AND WESTERN NORTH DAKOTA  *****

CITY           SKY/WX    TMP DP  RH WIND       PRES   REMARKS
BISMARCK       CLEAR     54  50  86 CALM      29.98F
MINOT          CLEAR     57  49  74 CALM      29.97S
JAMESTOWN      CLEAR     55  51  86 CALM      29.97F
MINOT AFB      CLEAR     52  48  87 W3        29.96F
GARRISON         N/A     55  50  83 CALM      29.99R
WILLISTON      CLEAR     64  51  62 E3        29.97S
DICKINSON      PTCLDY    55  49  80 E8        29.97F
HETTINGER      PTCLDY    61  51  70 E7        29.99S
$$

 *****  OTHER AIRPORT OBSERVATIONS IN OUR AREA  *****

CITY           SKY/WX    TMP DP  RH WIND       PRES   REMARKS
WALHALLA       FAIR      50  50 100 MISG      29.98R
GRAFTON AIRPOR FAIR      55  55 100 CALM      29.96R
VALLEY CITY AR FAIR      55  54  94 CALM      29.97F
CANDO          FAIR      52  50  93 N5        29.98S
CAVALIER APRT  FAIR      54  48  82 NW6       29.97R
GWINNER          N/A     54  50  87 SW6       29.97F
SHEYENNE NWR     N/A     51  49  93 CALM      29.95S
ROLLA          FAIR      46  45  93 NW3       30.00S
 ***** THE ABOVE OBSERVATIONS ARE NON NWS ARE NOT QUALITY
       CONTROLLED AND MAY MIS-REPORT RAIN FOR SNOW...
$$

  *****  WEATHER ACROSS NORTHERN MINNESOTA  *****

CITY           SKY/WX    TMP DP  RH WIND       PRES   REMARKS
FLAG ISLAND    CLEAR     57  54  88 W10       29.92R
WARROAD        CLEAR     55  52  88 W5        29.94S
ROSEAU         CLEAR     52  46  82 CALM      29.95R
HALLOCK        CLEAR     54  48  82 N5        29.95S
THF RVR FALLS  CLOUDY    57  48  72 CALM      29.95S
BAUDETTE       CLEAR     52  49  89 W5        29.92R
WASKISH        CLEAR     61  54  77 NW5       29.93S
CROOKSTON      CLEAR     55  52  88 CALM      29.95S
STEPHEN NDAWN    N/A     55  52  88 NW2         N/A
GREENBUSH NDAW   N/A     50  48  93 NW3         N/A
$$
  *****  WEATHER ACROSS CENTRAL AND WEST MINNESOTA  *****

CITY           SKY/WX    TMP DP  RH WIND       PRES   REMARKS
FOSSTON        CLEAR     46  46 100 CALM      29.96S
BEMIDJI        CLEAR     51  46  81 W3        29.95S
PARK RAPIDS    CLEAR     51  47  86 CALM      29.96S
ELBOW LAKE     FAIR      55  53  94 S5        29.97S
WADENA         CLEAR     52  46  82 CALM      29.95F
DETROIT LAKES  CLEAR     59  54  82 CALM      29.96S
MOORHEAD       CLEAR     55  48  76 S3        29.95F
FERGUS FALLS   CLEAR     55  55 100 CALM      29.96S
MORRIS MN      CLEAR     54  50  87 CALM      29.96F
STAPLES        CLEAR     52  48  87 CALM      29.96S
$$
  *****  WEATHER ELSEWHERE ACROSS MINNESOTA  *****

CITY           SKY/WX    TMP DP  RH WIND       PRES   REMARKS
DULUTH         CLEAR     54  50  86 W8        29.91S
INTRNTL FALLS  CLEAR     44  43  96 SW3       29.91R
ELY            MOCLDY    54  52  94 CALM      29.90R
CLOQUET        PTCLDY    55  50  82 W6        29.92S
WHEATON        CLEAR     54  52  94 CALM      29.98F
BRAINERD       CLEAR     52  50  93 CALM      29.95F
HIBBING        MOCLDY    46  45  96 W3        29.92R
ALEXANDRIA     CLEAR     57  52  83 SW6       29.98F
SAINT CLOUD    CLEAR     53  51  93 SW3       29.95F
MINNEAPOLIS    CLEAR     65  53  65 NW3       29.95R
$$

  *****  WEATHER ACROSS SOUTH DAKOTA  *****

CITY           SKY/WX    TMP DP  RH WIND       PRES   REMARKS
SIOUX FALLS    CLEAR     61  59  93 CALM      29.98F
BROOKINGS      CLEAR     55  52  88 CALM      30.00F
WATERTOWN      CLEAR     59  51  75 S3        29.98F
HURON          CLEAR     63  56  78 SE7       29.95F
SISSETON         N/A     53  50  89 W5        29.96F
ABERDEEN       CLEAR     57  51  80 E3        29.96F
MITCHELL       CLEAR     62  58  86 SE5       29.96F
PIERRE         MOCLDY    65  57  75 E9        29.93F
MOBRIDGE       PTCLDY    64  55  72 E9        29.94F
RAPID CITY     CLOUDY    69  60  73 N6        29.98R
$$

  *****  SOME WEATHER IN NEARBY STATES *****

CITY           SKY/WX    TMP DP  RH WIND       PRES   REMARKS
GLASGOW MT     CLEAR     68  45  43 E16       29.89S
GREAT FALLS MT CLOUDY    73  46  38 SW8       29.82S
CHEYENNE WY    CLOUDY    66  46  48 W13       30.10F
SCOTTSBLUFF NE MOCLDY    72  51  47 S6        29.98F
OMAHA NE       MOCLDY    72  62  71 SE5       29.96F
DES MOINES IA  PTCLDY    69  59  70 CALM      29.97S
DAVENPORT IA   CLEAR     57  55  93 W3        29.95F
CHICAGO IL     CLEAR     65  56  72 W6        29.91S
EAU CLAIRE WI  CLEAR     61  53  75 NW5       29.92R
LA CROSSE WI   CLEAR     62  56  80 S6        29.91S
$$

  *****  SOME NATIONAL WEATHER *****

CITY           SKY/WX    TMP DP  RH WIND       PRES   REMARKS
LA GUARDIA NY  MOCLDY    80  67  64 SW12      29.81S
RALEIGH NC     MOCLDY    76  70  82 SW7       29.96F
ATLANTA GA     MOCLDY    78  67  68 NW7       29.96S
NEW ORLEANS LA PTCLDY    80  74  81 S6        29.92F
OKLAHOMA CITY  CLOUDY    74  68  81 SE6       29.92F
ALBUQUERQUE NM PTCLDY    74  49  41 CALM      30.13R
SALT LAKE CITY MOCLDY    64  55  72 SE5       30.07S
LOS ANGELES CA PTCLDY    69  64  84 SW6       29.88S
BOISE ID       MOCLDY    75  46  35 W23G36    29.97R HAZE
SEATTLE WA     PTCLDY    64  56  75 SW5       29.97R
$$

*** WEATHER ACROSS MANITOBA...SASKATCHEWAN AND ONTARIO ***
                ***ONTARIO***

CITY           SKY/WX    TMP DP  RH WIND       PRES   REMARKS
GERALDTON      DRZL/FOG  52  52 100 NW3       29.80R VSB 3/4
THUNDER BAY    MOCLDY    57  55  94 NW3       29.83F
SIOUX LOOKOUT  MOCLDY    52  48  87 N5        29.88S
TORONTO        MOCLDY    66  57  72 NW10      29.81R
BIG TROUT LK   CLOUDY    50  48  93 N9        29.88R
PICKLE LAKE    NOT AVBL
DRYDEN         CLOUDY    52  48  87 NW7       29.90R
KENORA         MOCLDY    55  52  88 NE5       29.93R
$$
                *** MANITOBA***

CITY           SKY/WX    TMP DP  RH WIND       PRES   REMARKS
BRANDON        CLEAR     50  46  87 NE5       30.00R
DAUPHIN        CLEAR     48  46  93 S2        30.00S
ISLAND LAKE    PTCLDY    54  52  94 N6        29.97S
PILOT MOUND      N/A     52  48  87 CALM        N/A
THE PAS        CLEAR     52  48  87 CALM      30.00R
THOMPSON       LGT RAIN  54  54 100 CALM      29.99R
WINNIPEG       PTCLDY    48  46  93 NW6       29.97R
LYNN LAKE      CLOUDY    59  52  77 NE5       30.01S
CHURCHILL      CLOUDY    46  45  93 NE13      29.98R
GILLAM         LGT RAIN  52  48  87 NW6       29.97R
$$
                ***SASKATCHEWAN***

CITY           SKY/WX    TMP DP  RH WIND       PRES   REMARKS
ESTEVAN        CLEAR     54  48  82 E6        29.99S
KINDERSLEY     MOCLDY    63  54  72 E16G25    29.87F
LLOYDMINSTER   CLOUDY    64  54  68 SE15G22   29.88S
PRINCE ALBERT  MOCLDY    55  54  94 E2        29.97R
REGINA         PTCLDY    59  50  72 SE9       29.99R
YORKTON        CLEAR     55  52  88 SE5       30.00R
N. BATTLEFORD  CLEAR     61  54  77 SE15G21   29.93F
LA RONGE       PTCLDY    61  50  67 SE7       29.98S
SASKATOON      PTCLDY    64  54  68 SE13      29.98S
SWIFT CURRENT  CLEAR     63  54  72 SE12G17   29.91F
$$
NOTE: THESE ARE AUTOMATED STATIONS WITH LIMITED QUALITY CONTROL
      "FAIR" INDICATES FEW OR NO CLOUDS BELOW 12,000 FEET WITH NO
      SIGNIFICANT WEATHER AND/OR OBSTRUCTIONS TO VISIBILITY.
      SKY/WX - SKY CONDITION AND SIGNIFICANT WEATHER.
      TMP - AIR TEMPERATURE.    DP   - DEWPOINT TEMPERATURE.
      RH  - RELATIVE HUMIDITY.  PRES - PRESSURE.
      HX  - HEAT INDEX.         WCI  - WIND CHILL INDEX.
$


USA.gov is the U.S. government's official web portal to all federal, state and local government web resources and services.